Wind_Speed
15 15 14 14 15 15 15 16 15 14 15 15 16 15 16 15 15 15 15 15 15 15 16 16 14 13 12 12 12 12 11 10 10 10 10 10 10 10 10 10 11 12 12 13
14 14 13 15 16 16 16 16 15 15 15 16 17 17 17 16 16 16 16 16 16 15 14 14 14 14 12 11 11 11 10 10 9 10 10 10 10 10 11 11 11 12 12 12
13 13 14 15 15 16 15 16 16 16 16 17 17 17 16 15 15 16 16 17 16 15 15 14 14 13 12 11 10 10 10 10 10 10 10 10 10 10 11 11 11 11 11 11
12 13 15 16 15 15 15 16 17 17 17 16 16 17 14 13 14 15 16 16 15 15 15 14 14 15 14 12 10 9 9 9 10 10 10 9 9 10 11 12 12 11 11 10
13 14 15 16 16 16 16 16 17 17 17 17 16 18 15 15 16 16 16 15 14 14 14 14 14 15 12 11 11 10 9 9 10 10 9 9 10 10 11 12 12 12 11 10
13 14 15 15 15 15 16 17 17 18 17 17 15 17 16 16 16 17 16 14 12 13 13 13 13 12 10 11 11 10 10 10 10 10 10 10 10 11 11 11 12 12 11 11
14 14 14 16 16 16 16 16 18 18 17 16 15 17 16 16 15 15 14 12 11 12 12 12 11 11 10 10 10 10 10 10 10 10 10 10 10 11 11 11 12 12 11 11
14 14 14 16 16 16 17 17 18 18 16 15 15 16 16 14 14 13 12 11 10 11 11 11 11 10 10 10 10 10 10 10 10 10 10 10 11 11 11 11 11 11 11 10
14 13 13 15 15 16 17 18 17 17 17 17 17 17 15 14 13 11 11 11 10 10 10 10 10 10 10 11 11 11 11 11 12 11 10 10 10 11 11 11 11 11 11 11
14 15 13 12 15 16 17 17 17 17 19 19 17 16 14 13 13 13 12 11 10 10 10 9 10 10 11 12 12 12 12 12 12 12 12 12 11 11 11 12 12 12 11 11
16 16 15 15 15 15 17 17 17 17 18 19 18 16 15 14 13 13 12 10 9 9 11 10 10 10 12 13 13 13 12 12 12 12 12 12 12 12 12 12 12 12 12 12
17 17 17 16 15 15 16 17 17 17 18 19 19 17 15 14 14 13 12 11 10 10 11 11 11 12 12 12 12 11 11 12 12 12 12 12 12 12 12 13 13 13 12 12
19 18 18 17 17 17 17 17 18 18 19 20 21 18 16 16 13 12 12 12 12 12 12 12 12 12 12 12 12 12 11 11 12 12 12 12 12 13 13 14 14 13 14 13
20 19 19 18 16 17 17 17 17 19 19 19 18 17 16 15 14 14 14 13 13 12 13 13 13 12 12 12 12 12 12 12 12 12 13 13 13 13 14 14 14 14 15 15
21 21 19 18 17 18 18 18 18 19 19 19 18 17 15 14 15 15 14 13 13 13 13 13 13 12 12 12 12 12 13 13 13 13 14 14 14 14 14 14 15 15 15 16
22 21 20 18 18 19 20 19 18 18 18 18 18 17 15 14 15 16 16 15 14 14 14 13 13 13 13 13 14 14 14 15 15 14 14 14 15 15 15 14 14 15 16 16
21 20 19 18 18 19 19 19 19 19 17 16 16 16 17 16 16 16 16 16 16 15 14 14 14 14 14 14 15 15 16 16 16 15 15 15 16 16 16 16 16 16 17 16
20 19 20 19 18 19 17 18 18 18 17 17 16 17 18 18 17 18 17 16 16 15 14 15 15 16 15 16 16 16 16 17 16 16 16 16 16 16 17 17 17 18 17 17
21 20 21 21 20 20 18 18 18 18 19 19 19 19 18 18 18 18 18 16 16 16 16 16 16 16 16 17 17 17 17 17 17 17 16 17 17 16 17 17 17 18 18 18
22 21 21 21 21 21 18 18 18 19 19 19 20 20 20 19 19 19 19 19 17 17 17 17 16 16 16 16 17 18 18 17 17 17 17 17 17 17 17 18 18 18 19 18
22 21 21 21 22 21 18 18 18 19 19 19 19 19 20 20 20 20 20 19 18 18 18 17 18 18 17 17 17 17 17 17 17 17 17 18 18 19 19 19 19 19 20 20
21 21 22 22 23 21 19 18 19 20 20 20 20 20 20 20 20 20 20 20 19 19 19 19 18 18 18 18 18 18 18 18 18 19 19 19 20 20 20 20 20 21 21 21
23 22 22 22 22 21 21 20 20 21 21 21 21 21 21 21 21 21 21 21 20 20 19 19 18 18 18 19 19 19 19 19 19 20 20 20 20 20 20 20 21 21 21 20
24 24 23 23 23 23 22 23 23 21 21 21 22 22 21 22 21 21 21 22 21 20 19 18 19 19 19 19 20 20 19 19 19 20 20 20 20 21 21 21 22 21 21 21
25 25 23 23 23 24 23 23 24 23 22 22 22 22 22 22 22 21 21 20 19 18 19 19 19 20 20 21 20 20 19 20 20 20 20 21 21 21 22 22 22 21 21 21
25 25 25 24 24 25 24 23 23 22 22 22 22 23 23 23 23 22 21 20 20 20 19 19 19 20 21 20 20 20 20 20 20 20 21 21 21 21 22 22 22 21 21 22
Wind_Direction
238 239 239 237 236 236 239 241 244 248 252 255 263 267 270 274 276 281 285 291 293 299 306 305 308 309 305 307 309 305 303 305 301 296 296 294 294 295 296 294 294 292 288 285
238 238 236 233 234 236 238 241 242 245 249 260 266 268 270 271 273 278 284 290 292 295 301 302 305 309 306 302 303 304 299 297 300 297 294 295 296 297 299 296 292 290 289 288
242 240 237 237 235 237 241 245 248 251 253 260 266 269 269 268 268 275 281 289 290 294 296 295 300 306 302 297 298 301 301 297 297 296 295 294 295 297 298 298 291 289 292 290
240 239 239 240 238 238 242 245 250 251 256 260 264 269 261 268 271 278 285 289 290 292 293 293 294 301 297 289 289 294 295 293 295 293 289 291 294 295 294 292 293 291 294 293
239 239 240 241 242 242 243 244 246 250 257 259 265 271 264 267 271 275 281 284 283 287 287 291 297 297 291 286 287 292 293 291 291 291 288 288 293 294 292 292 294 292 291 292
241 240 241 241 241 241 244 244 245 250 252 256 266 273 269 271 276 276 278 277 278 284 285 289 296 294 285 287 288 287 289 292 292 291 288 288 292 295 294 294 295 295 291 290
240 241 240 242 241 237 242 246 247 250 253 257 267 273 276 271 273 274 278 277 284 290 288 290 292 288 287 287 287 286 292 296 293 290 286 288 290 292 295 296 296 296 291 291
243 239 239 243 245 243 242 244 250 255 258 258 264 273 276 269 270 270 273 284 291 291 284 288 289 288 286 284 286 290 294 295 296 298 290 285 287 291 293 298 299 298 294 295
247 244 240 244 245 245 244 245 248 252 258 262 265 272 274 269 265 268 276 288 293 291 285 288 289 293 288 286 288 292 290 291 293 296 292 286 289 292 293 300 302 304 304 298
254 252 245 244 242 240 243 245 245 251 258 262 265 264 266 267 264 269 277 285 291 284 286 287 285 282 283 286 288 289 288 287 290 291 291 293 294 298 298 302 304 304 305 301
250 251 249 246 244 242 242 243 245 251 259 266 266 266 269 269 265 268 269 274 284 288 285 287 291 294 292 288 284 285 288 288 287 286 286 288 289 289 292 296 299 299 299 298
250 250 249 246 245 245 245 245 249 255 260 263 267 271 266 266 264 264 265 269 276 282 280 282 289 293 293 294 290 290 290 291 290 289 287 286 285 285 285 289 293 294 295 297
251 252 249 245 243 244 242 245 252 254 258 264 269 272 269 269 268 264 262 268 274 276 277 280 289 292 292 292 292 294 291 292 291 291 290 290 289 287 285 286 290 291 290 290
249 251 252 252 250 250 246 249 253 254 259 267 267 271 273 273 268 271 270 271 273 276 280 285 291 291 291 289 286 289 284 288 289 290 291 291 291 291 287 286 288 292 291 291
244 248 251 253 253 252 249 249 252 256 261 263 265 269 272 272 275 275 275 274 274 275 279 284 286 284 286 284 282 287 287 288 289 291 292 292 289 290 292 290 292 295 296 297
243 248 251 253 253 252 250 251 251 253 259 264 265 270 274 276 276 276 274 274 275 274 276 280 282 282 283 283 281 285 287 285 286 288 288 288 288 290 292 292 293 292 294 295
243 247 246 246 246 248 247 249 251 252 257 263 269 270 272 276 275 275 275 274 276 279 276 276 278 279 278 279 281 285 285 287 286 288 286 284 285 286 287 288 289 293 294 294
240 242 246 247 245 244 247 251 254 256 261 266 272 275 275 275 274 273 275 271 272 276 276 276 276 277 277 278 280 283 286 289 290 287 286 285 285 284 284 286 288 292 293 293
240 245 249 248 245 245 248 251 256 261 263 270 273 277 275 273 273 271 271 271 273 273 273 275 277 276 276 278 280 282 285 287 288 287 287 287 285 284 285 286 289 292 291 291
241 246 248 249 248 247 248 252 255 260 264 269 272 275 274 275 275 273 273 272 273 274 275 276 276 276 277 279 279 279 281 282 284 284 285 287 287 286 286 286 287 289 289 289
244 245 246 247 249 250 250 252 256 261 267 270 273 274 275 276 276 275 276 274 272 273 273 274 275 275 275 276 278 279 280 282 282 284 285 287 288 288 286 285 287 290 289 289
245 246 244 249 252 253 254 257 260 265 267 269 272 275 276 278 277 275 275 275 274 272 272 273 272 271 272 273 276 278 279 280 282 284 286 286 287 286 286 286 287 291 291 290
245 245 245 248 252 255 256 259 261 263 265 268 270 273 276 277 277 275 273 274 272 272 272 271 269 270 271 273 275 277 278 279 281 282 283 284 285 285 285 286 288 290 289 290
246 245 246 248 250 253 256 260 264 266 267 269 271 273 275 276 276 276 275 274 274 272 272 272 273 272 273 274 275 277 278 279 279 280 281 283 284 284 285 286 287 288 287 289
248 248 248 251 253 254 257 260 262 264 267 270 272 272 271 274 274 274 274 272 271 272 271 272 270 271 272 274 275 277 278 279 279 280 281 281 282 283 285 286 286 286 287 287
247 249 251 250 251 254 255 256 258 261 264 269 272 273 271 270 269 269 269 270 270 271 273 275 275 274 274 276 276 277 278 279 281 282 283 283 283 283 285 286 286 286 287 287
Height
5841 5843 5844 5845 5846 5847 5848 5849 5850 5852 5852 5852 5853 5853 5854 5854 5854 5853 5852 5852 5851 5850 5848 5846 5845 5844 5841 5840 5839 5837 5836 5835 5835 5834 5834 5833 5832 5831 5829 5828 5827 5826 5825 5825
5838 5840 5841 5841 5842 5843 5844 5846 5847 5848 5848 5849 5849 5850 5850 5850 5850 5849 5849 5848 5848 5847 5846 5844 5842 5840 5838 5837 5837 5835 5834 5833 5832 5832 5831 5830 5829 5828 5827 5826 5825 5823 5822 5821
5835 5837 5837 5837 5838 5840 5841 5842 5843 5844 5845 5845 5846 5846 5846 5847 5846 5846 5845 5844 5844 5843 5842 5840 5839 5837 5836 5834 5833 5833 5831 5830 5830 5829 5828 5828 5827 5825 5824 5823 5822 5820 5819 5818
5831 5833 5833 5834 5835 5836 5837 5839 5840 5840 5841 5841 5842 5841 5843 5843 5842 5842 5841 5840 5839 5839 5839 5837 5835 5834 5833 5831 5830 5829 5828 5828 5827 5826 5826 5825 5824 5823 5822 5820 5819 5818 5817 5815
5828 5829 5829 5831 5832 5833 5834 5835 5836 5836 5836 5837 5838 5837 5839 5839 5838 5838 5837 5836 5836 5836 5835 5833 5832 5830 5829 5829 5828 5826 5825 5825 5824 5823 5823 5822 5821 5820 5819 5817 5816 5815 5814 5812
5824 5825 5825 5826 5828 5828 5830 5831 5831 5832 5832 5834 5834 5833 5834 5834 5834 5834 5833 5832 5832 5831 5831 5829 5828 5827 5827 5826 5825 5824 5823 5822 5821 5820 5820 5819 5818 5817 5816 5815 5813 5812 5810 5809
5820 5821 5821 5822 5823 5824 5825 5826 5827 5827 5828 5830 5830 5829 5830 5830 5829 5829 5829 5828 5828 5827 5827 5826 5825 5825 5824 5823 5822 5821 5820 5819 5818 5817 5816 5815 5815 5814 5813 5811 5810 5809 5808 5806
5815 5816 5817 5818 5819 5819 5820 5822 5823 5824 5824 5826 5826 5825 5826 5826 5825 5825 5825 5825 5824 5823 5822 5822 5822 5821 5821 5820 5819 5818 5817 5816 5815 5814 5813 5813 5812 5811 5810 5809 5807 5806 5804 5803
5811 5813 5814 5814 5815 5816 5816 5817 5819 5820 5820 5821 5821 5821 5821 5821 5821 5822 5822 5821 5820 5820 5819 5819 5818 5818 5817 5817 5816 5815 5813 5813 5812 5811 5811 5810 5809 5808 5807 5806 5804 5803 5801 5800
5807 5809 5810 5811 5812 5812 5813 5814 5815 5815 5816 5816 5817 5817 5818 5817 5818 5818 5817 5817 5816 5816 5816 5815 5815 5814 5813 5812 5812 5811 5810 5809 5809 5808 5807 5806 5805 5805 5804 5802 5801 5800 5798 5797
5803 5805 5806 5807 5809 5809 5810 5811 5811 5812 5812 5812 5812 5815 5814 5814 5814 5814 5813 5813 5813 5813 5813 5812 5811 5810 5809 5808 5808 5807 5806 5806 5805 5805 5804 5803 5802 5801 5800 5799 5798 5797 5795 5794
5800 5801 5802 5803 5805 5806 5806 5807 5808 5808 5808 5808 5808 5812 5809 5810 5809 5809 5809 5809 5809 5809 5809 5809 5808 5807 5806 5805 5804 5803 5803 5802 5802 5801 5800 5799 5798 5797 5797 5796 5794 5793 5791 5790
5795 5797 5798 5799 5802 5801 5802 5802 5803 5804 5804 5803 5804 5807 5806 5805 5805 5805 5806 5806 5806 5805 5805 5804 5803 5803 5802 5801 5801 5799 5799 5798 5798 5797 5796 5795 5794 5793 5793 5792 5790 5789 5788 5786
5791 5792 5794 5795 5795 5796 5797 5798 5798 5799 5799 5799 5800 5801 5801 5801 5801 5801 5801 5801 5802 5801 5801 5800 5799 5798 5798 5798 5797 5795 5795 5794 5793 5793 5792 5791 5790 5789 5788 5787 5786 5784 5783 5781
5787 5788 5789 5790 5791 5792 5792 5793 5794 5795 5795 5795 5796 5796 5797 5797 5797 5796 5796 5797 5797 5797 5797 5797 5796 5795 5794 5794 5793 5792 5791 5791 5789 5788 5787 5787 5786 5785 5784 5783 5782 5780 5779 5777
5781 5783 5785 5786 5787 5787 5787 5789 5790 5790 5791 5791 5791 5792 5792 5792 5792 5792 5793 5793 5793 5792 5793 5792 5792 5791 5791 5790 5790 5788 5787 5787 5785 5784 5783 5782 5782 5781 5780 5779 5778 5776 5775 5773
5777 5778 5780 5781 5782 5782 5783 5785 5785 5786 5786 5786 5786 5787 5787 5787 5788 5788 5788 5789 5788 5788 5788 5788 5787 5787 5787 5786 5786 5785 5783 5781 5779 5779 5779 5778 5777 5776 5775 5774 5773 5772 5770 5769
5772 5773 5774 5776 5777 5777 5782 5780 5781 5781 5781 5781 5781 5782 5783 5783 5784 5784 5784 5784 5783 5783 5783 5783 5783 5782 5782 5782 5781 5780 5778 5777 5775 5774 5773 5772 5772 5771 5770 5769 5768 5767 5765 5764
5766 5768 5769 5770 5771 5772 5775 5776 5777 5777 5777 5777 5777 5778 5778 5778 5779 5779 5779 5779 5778 5778 5778 5778 5777 5777 5776 5776 5775 5775 5773 5772 5771 5770 5769 5768 5767 5766 5765 5764 5763 5762 5760 5759
5760 5762 5764 5764 5765 5767 5771 5772 5771 5772 5772 5773 5773 5773 5773 5773 5773 5774 5773 5773 5773 5773 5773 5772 5772 5772 5771 5771 5770 5769 5769 5768 5766 5765 5764 5763 5762 5762 5761 5759 5758 5757 5755 5754
5754 5756 5758 5759 5760 5761 5765 5765 5766 5767 5768 5768 5768 5768 5767 5767 5768 5768 5767 5767 5767 5767 5767 5766 5766 5766 5766 5766 5765 5765 5764 5763 5762 5760 5759 5758 5757 5756 5755 5754 5752 5751 5749 5748
5748 5750 5752 5753 5754 5758 5759 5759 5760 5761 5761 5761 5762 5762 5762 5761 5761 5761 5761 5761 5761 5761 5761 5760 5760 5760 5760 5760 5760 5759 5758 5757 5756 5755 5754 5753 5752 5750 5749 5748 5746 5745 5743 5742
5741 5744 5746 5748 5751 5751 5752 5752 5753 5754 5755 5755 5755 5756 5756 5755 5754 5755 5755 5755 5755 5754 5754 5754 5754 5755 5754 5754 5754 5753 5752 5751 5750 5749 5748 5747 5745 5744 5743 5742 5740 5739 5737 5736
5735 5737 5739 5741 5742 5744 5745 5746 5746 5747 5748 5748 5749 5749 5749 5749 5749 5749 5749 5749 5749 5748 5748 5748 5748 5748 5748 5747 5747 5747 5746 5745 5744 5743 5742 5741 5740 5738 5737 5735 5734 5733 5731 5730
5728 5730 5732 5734 5736 5737 5738 5739 5740 5740 5741 5742 5742 5742 5742 5742 5742 5742 5742 5743 5743 5742 5742 5742 5742 5742 5741 5741 5740 5740 5739 5739 5738 5737 5736 5735 5733 5732 5730 5729 5727 5726 5725 5723
5721 5723 5725 5726 5728 5730 5731 5732 5733 5734 5734 5734 5735 5735 5735 5735 5736 5736 5736 5736 5737 5737 5736 5736 5736 5735 5735 5735 5734 5734 5733 5732 5731 5730 5729 5728 5727 5725 5724 5722 5720 5719 5718 5717